SPACEMOBILE-SSR05 DEB, 62373

Orbit data source: Space-Track

SPACEMOBILE-SSR05 DEB, 62373 is space debris in LEO originally from a launch on Thu, 12 Sep 2024 UTC launched from the Air Force Eastern Test Range (AFETR). Debris objects in space refer to the collection of defunct objects orbiting the Earth. Examples of debris include non-operational satellites, rocket bodies, and fragments generated from explosions, collisions, or faulty payload assembly.

Loading next visibility...
Identifier
62373, 2024-163K
Orbit
LEO
Country
Flag of USUS
Related business
Manufacturer
AST & Science
Mission
Spacecraft
Bus & Motor
BW3 LVA, Unknown motor
Mass
150 kg wet, 150 kg dry
Launch date (UTC)
2024-09-12 (1 year ago)
Launch vehicle
Unknown
Launch site
Air Force Eastern Test Range (AFETR)
Object type
Payload
Rocket body
Debris
Shape & HBR
Cyl, 3.8 m
Radar Cross Section
1.963 m², Large (>1 m²)

Expand to show TLE details & history
Last TLE update: 11 hours ago

TLE from 11 hours ago
0 SPACEMOBILE-SSR05 DEB
1 62373U 24163K   25340.61547227  .00017777  00000-0  64137-3 0  9998
2 62373  52.9776 104.0056 0006843 260.8054  99.2169 15.28588251 68613
Epoch: 2025-12-06T14:46Z
TLE epoch observation values (Epoch: 2025-12-06T14:46:16.804Z)
Latitude
-0.00006°
Longitude
166.79487°
Altitude
481.666 km
Speed
7.625 km/s
True Right ascension
06h 56m 01s
True Declination
0° 00' 00"
Sunlit
Object was in full shadow at epoch
Visualization orbit readout
Latitude
Unknown
Longitude
Unknown
Altitude
Unknown
Speed
Unknown
Apparent Right ascension
Unknown
Apparent Declination
Unknown
Sunlit
N/A
Visualization observer readout
Local Sidereal Time
23:28:11
Azimuth
Unknown
Elevation
Unknown
Doppler factor
Unknown
Orbital elements
Apogee altitude
485.011 km
Perigee altitude
475.624 km
Semi-major axis
6,858.454 km
Eccentricity
0.00068
Inclination
52.9776°
RAAN
104.0056°
Arg. of periapsis
260.8054°
True anomaly
99.29429°
Mean anomaly
99.2169°
Eccentric anomaly
99.2556°
Mean motion
3.82124 °/min
Orbital period
94.21 mins
BSTAR
0.00064137
Loading maneuver chart data...
Computing Atmospheric mass density...
Loading historical data...
Loading historical data...
Loading historical data...
Loading historical data...
Loading historical data...
Loading historical data...
Loading historical data...

Documentation

Showing up to 5 results
|